CAPE
0 3 0 0 3 0 0 0 0 0 0 0 0 0 0 0 0 0 0 0 0 0
0 1 4 9 5 8 2 0 0 0 0 1 1 0 0 1 1 1 0 0 0 0
0 0 21 37 33 19 6 2 5 1 0 1 1 2 1 1 1 1 1 0 1 0
0 0 11 63 69 91 43 13 6 1 1 1 1 1 2 1 2 1 1 1 1 1
3 0 7 9 2 1 2 1 12 4 7 1 1 1 2 1 1 1 1 1 1 1
4 4 2 2 2 1 1 1 1 1 0 0 1 1 1 0 0 1 1 1 1 1
5 5 5 5 4 3 3 3 5 5 3 4 3 3 3 3 2 1 0 0 2 2
3 3 3 5 3 2 1 1 2 2 4 2 4 4 2 1 0 0 0 0 0 0
2 4 5 3 2 0 0 0 0 4 3 1 3 2 0 0 0 0 0 0 0 0
2 1 0 0 0 0 0 0 0 0 0 1 2 1 2 0 1 0 1 1 1 1
0 0 0 0 0 0 0 0 0 0 1 1 1 2 1 0 0 0 0 0 0 0
0 0 0 0 0 0 0 0 0 0 0 0 2 3 2 0 0 1 0 0 0 0
0 0 0 0 0 0 0 0 0 0 0 0 0 0 0 1 1 0 1 0 0 1
0 0 0 0 0 0 0 0 0 0 0 0 2 1 0 1 1 0 0 0 1 1
CIN
-0 -0 -0 -0 -115 -0 -0 -0 -0 -0 -0 -0 -0 -0 -0 -0 -0 -0 -0 -0 -0 -0
-0 -0 -40 -101 -103 -111 -142 -20 -0 -0 -0 -0 -0 -0 -0 -0 -0 -0 -0 -0 -0 -0
-0 -0 -76 -67 -59 -78 -74 -55 -89 -35 -0 -0 -0 -0 -0 -0 -0 -0 -0 -0 -0 -0
-0 -0 -31 -51 -41 -15 -17 -21 -9 -11 -0 -0 -0 -0 -0 -0 -0 -20 -0 -0 -0 -0
-0 -0 -16 -5 -2 -2 -0 -0 -14 -8 -38 -4 -0 -0 -0 -0 -0 -3 -0 -0 -0 -0
-0 -0 -0 -0 -0 -0 -0 -0 -0 -0 -0 -0 -0 -0 -0 -0 -0 -0 -0 -0 -0 -0
-0 -0 -0 -0 -0 -0 -0 -0 -0 -0 -0 -0 -0 -0 -0 -0 -0 -0 -0 -0 -0 -0
-0 -0 -0 -0 -0 -0 -0 -0 -0 -0 -0 -0 -0 -0 -0 -0 -0 -0 -0 -0 -0 -0
-0 -0 -0 -0 -0 -0 -0 -0 -0 -0 -0 -0 -0 -0 -0 -0 -0 -0 -0 -0 -0 -0
-0 -0 -0 -0 -0 -0 -0 -0 -0 -0 -0 -0 -0 -0 -0 -0 -0 -0 -0 -0 -0 -0
-0 -0 -0 -0 -0 -0 -0 -0 -0 -0 -0 -0 -0 -0 -0 -0 -0 -0 -0 -0 -0 -0
-0 -0 -0 -0 -0 -0 -0 -0 -0 -0 -0 -0 -0 -0 -0 -0 -0 -0 -0 -0 -0 -0
-0 -0 -0 -0 -0 -0 -0 -0 -0 -0 -0 -0 -0 -0 -0 -0 -0 -0 -0 -0 -0 -0
-0 -0 -0 -0 -0 -0 -0 -0 -0 -0 -0 -0 -0 -0 -0 -0 -0 -0 -0 -0 -0 -0
Wind_Speed
36 34 31 30 28 27 26 24 24 22 23 20 18 18 18 18 19 20 21 22 24 24
38 36 34 32 30 30 29 28 27 24 22 28 19 19 18 20 21 22 22 23 24 24
37 38 34 31 31 31 30 28 27 27 26 27 19 21 23 26 28 25 23 23 24 25
38 35 34 31 29 30 30 30 31 28 27 27 26 25 25 27 21 27 27 22 23 23
30 26 24 25 25 25 26 28 31 30 30 29 28 27 28 28 28 18 20 23 22 22
24 23 20 19 20 20 21 22 24 24 24 25 26 28 27 26 29 29 31 32 33 31
20 18 18 16 16 16 17 19 20 21 20 22 24 26 30 31 30 32 33 34 34 35
16 15 13 14 13 13 14 16 17 18 20 22 24 27 29 29 32 33 34 34 33 35
13 13 11 11 12 12 14 15 17 18 19 22 24 28 30 31 32 33 34 36 36 38
12 12 11 10 10 12 14 15 17 18 21 22 25 29 29 29 28 29 31 33 34 35
13 15 12 11 11 13 15 17 18 20 21 22 25 27 29 28 28 29 30 31 33 34
8 14 10 10 12 14 16 19 21 21 22 23 25 28 30 29 29 30 32 33 34 36
12 10 11 12 13 15 16 20 22 23 24 25 26 29 30 32 31 33 34 34 36 37
6 2 3 5 7 9 13 21 24 26 27 28 29 30 33 34 33 35 35 35 37 37
Wind_Direction
276 273 275 276 277 280 282 283 283 277 279 280 276 267 267 267 258 266 267 268 277 279
275 274 273 275 278 279 283 287 287 286 283 281 278 268 263 273 271 270 270 272 272 276
277 274 273 274 275 278 283 287 290 288 288 291 279 280 284 290 289 279 273 278 281 279
277 277 272 271 274 277 282 286 287 291 289 290 291 294 295 296 296 290 294 293 288 281
283 279 279 277 277 280 285 291 290 289 290 292 293 296 297 299 299 292 296 296 299 297
290 279 277 285 288 287 292 298 303 302 302 303 304 306 307 306 309 313 317 317 311 307
298 290 281 284 292 296 299 305 313 312 314 317 317 311 309 307 310 312 314 317 314 311
299 291 296 293 296 310 316 319 320 320 321 325 321 319 315 315 311 314 317 321 318 317
317 300 309 300 304 319 327 333 334 330 331 328 335 323 320 321 318 320 320 320 320 320
330 323 324 323 325 326 336 342 347 347 343 338 346 344 339 341 337 335 331 331 333 335
335 350 350 344 339 336 345 354 360 359 1 359 354 353 351 351 352 352 349 348 346 345
324 345 343 352 357 354 4 15 20 15 11 10 7 2 358 356 354 353 352 352 351 348
351 352 0 360 6 6 12 22 22 20 13 9 6 360 357 359 4 1 359 360 359 357
356 42 17 8 358 358 2 21 22 22 17 13 9 4 0 359 358 356 359 4 4 4